Regional Weather Roundup
Issued by NWS

Home | Current Version | Previous Version | Graphics & Text | Print | Product List | Glossary On
Versions: 1 2 3 4 5 6 7 8 9 10 11 12 13 14 15 16 17 18 19 20 21 22 23 24 25 26 27 28 29 30 31 32 33 34 35 36 37 38 39 40 41 42 43 44 45 46 47 48 49 50
000
ASUS45 KABQ 130801
RWRNM
NEW MEXICO REGIONAL WEATHER ROUNDUP
NATIONAL WEATHER SERVICE ALBUQUERQUE NM
100 AM MST WED DEC 13 2017

NOTE: "FAIR" MEANS FEW OR NO CLOUDS BELOW 12,000 FEET AGL WITH NO
       SIGNIFICANT WEATHER OR OBSTRUCTIONS TO VISION.

      THIS PRODUCT IS RELEASED AS TWO VERSIONS.  ONE VERSION NEAR
      THE TOP OF THE HOUR CONTAINING PRELIMINARY DATA FROM ALBUQUERQUE
      AND OTHER STATIONS.  A FINAL VERSION WITH ADDITIONAL DATA IS
      ISSUED ABOUT 10 MINUTES AFTER THE HOUR.

NMZ501-503-504-510>518-130900-
NORTHWEST PLATEAU/NORTHCENTRAL MOUNTAINS

CITY           SKY/WX    TMP DP  RH WIND       PRES   REMARKS
FARMINGTON     FAIR      15  -3  44 NE6       30.27F WCI   6
LOS ALAMOS     FAIR      37   4  25 N3        30.27F
SANTA FE       FAIR      22   6  50 N8        30.25F WCI  12
TAOS           FAIR      16   1  51 N7        30.30F WCI   6
ANGEL FIRE     FAIR       7   3  84 CALM      30.30F

$$
NMZ402-403-502-505>509-130900-
WESTCENTRAL MOUNTAINS/SOUTHWEST MOUNTAINS

CITY           SKY/WX    TMP DP  RH WIND       PRES   REMARKS
GALLUP         FAIR      14  -7  38 CALM      30.29F
GRANTS         FAIR      18  -6  33 NW8       30.30S WCI   8
SILVER CITY    FAIR      26   2  35 N9        30.25F WCI  17

$$
NMZ407-409-411-412-130900-
SOUTHERN DESERTS

CITY           SKY/WX    TMP DP  RH WIND       PRES   REMARKS
DEMING         FAIR      29   6  38 W3        30.24F
LAS CRUCES     FAIR      31   9  40 NW3       30.25F
HOLLOMAN AFB   FAIR      26   4  38 CALM      30.26F
ALAMOGORDO     FAIR      27   5  39 E5        30.25F WCI  21
T OR C         FAIR      34   4  28 W8        30.24F WCI  27

$$
NMZ519>523-130900-
CENTRAL VALLEYS/CENTRAL HIGHLANDS

CITY           SKY/WX    TMP DP  RH WIND       PRES   REMARKS
ALBUQUERQUE    FAIR      32   3  29 CALM      30.25F
MORIARTY ARPT  FAIR      14  -1  52 N6        30.25F WCI   5
CLINES CORNERS FAIR      30   3  31 NW18      30.22F WCI  18
BELEN          FAIR      24   1  36 NW8       30.25F WCI  15
SOCORRO        NOT AVBL

$$
NMZ524>526-539-540-130900-
SOUTHCENTRAL MOUNTAINS

CITY           SKY/WX    TMP DP  RH WIND       PRES   REMARKS
RUIDOSO        FAIR      32   1  27 W8        30.24F WCI  25

$$
NMZ527>531-130900-
NORTHEAST HIGHLANDS/NORTHEAST PLAINS

CITY           SKY/WX    TMP DP  RH WIND       PRES   REMARKS
LAS VEGAS      FAIR      27   9  46 NE3       30.17F
RATON          FAIR      24   8  50 E6        30.14F WCI  17
CLAYTON        FAIR      45   9  23 W14       30.06F

$$
NMZ532>537-130900-
EASTCENTRAL PLAINS

CITY           SKY/WX    TMP DP  RH WIND       PRES   REMARKS
SANTA ROSA     FAIR      41   5  23 SW12      30.12F
TUCUMCARI      FAIR      32   8  36 W9        30.08F WCI  24
CANNON AFB     NOT AVBL
CLOVIS AIRPORT FAIR      35   9  33 W14       30.12F WCI  26

$$
NMZ028-029-538-130900-
SOUTHEAST PLAINS

CITY           SKY/WX    TMP DP  RH WIND       PRES   REMARKS
ROSWELL        FAIR      27   6  41 CALM      30.15F
ARTESIA        FAIR      30   5  34 CALM      30.16F
CARLSBAD       FAIR      28  20  71 VRB3      30.16F


$$



USA.gov is the U.S. government's official web portal to all federal, state and local government web resources and services.